Sidney, NE

12:00 PM MST on December 06, 2016 (GMT -0700)
Sidney Municipal

Weather History for KSNY - December, 2012

Change the Weather History Date:

Tuesday, December 4, 2012

  Actual Average Record
Temperature  
Mean Temperature 36 °F 30 °F  
Max Temperature 53 °F 43 °F 68 °F (1989)
Min Temperature 18 °F 18 °F -5 °F (2009)
Degree Days  
Heating Degree Days 29 35  
Month to date heating degree days 87 138  
Since 1 July heating degree days 1495 1560  
Cooling Degree Days 0 0  
Month to date cooling degree days 0 0  
Year to date cooling degree days 1165 830  
Moisture  
Dew Point 11 °F    
Average Humidity 37    
Maximum Humidity 54    
Minimum Humidity 20    
Precipitation  
Precipitation 0.00 in 0.02 in 0.62 in (1958)
Month to date precipitation T 0.08  
Year to date precipitation 7.06 18.08  
Sea Level Pressure  
Sea Level Pressure 30.27 in    
Wind  
Wind Speed 8 mph (West)    
Max Wind Speed 21 mph    
Max Gust Speed 23 mph    
Visibility 10 miles    
Events      
T = Trace of Precipitation, MM = Missing Value Source: NWS Daily Summary

Daily Weather History Graph

Daily Weather History Graph

Search for Another Location

Airport or City:

Trip Planner

Search our weather history database for the weather conditions in past years. The results will help you decide how hot, cold, wet, or windy it might be!

Date:

Astronomy

Dec. 04, 2012 Rise Set
Actual Time 7:01 AM MST 4:23 PM MST
Civil Twilight 6:30 AM MST 4:54 PM MST
Nautical Twilight 5:56 AM MST 5:28 PM MST
Astronomical Twilight 5:22 AM MST 6:01 PM MST
Moon 10:15 PM MST (12/4) 10:54 AM MST (12/4)
Length of Visible Light 10h 23m
Length of Day
9h 22m
Waning Gibbous, 69% of the Moon is Illuminated
Dec 4
Waning Gibbous
Dec 6
Last Quarter
Dec 13
New
Dec 19
First Quarter
Dec 28
Full

Hourly Weather History & Observations

Time (MST) Temp. Windchill Dew Point Humidity Pressure Visibility Wind Dir Wind Speed Gust Speed Precip Events Conditions
12:53 AM 30.9 °F 20.2 °F 7.0 °F 37% 30.22 in 10.0 mi NW 15.0 mph - N/A   Clear
1:53 AM 30.0 °F 19.1 °F 5.0 °F 35% 30.25 in 10.0 mi WNW 15.0 mph - N/A   Clear
2:43 AM 30.2 °F 19.8 °F 3.2 °F 32% 30.23 in 10.0 mi West 13.8 mph - N/A   Clear
2:53 AM 28.0 °F 18.1 °F 3.9 °F 36% 30.27 in 10.0 mi West 11.5 mph - N/A   Clear
3:53 AM 24.1 °F 13.1 °F 3.9 °F 42% 30.31 in 10.0 mi WNW 11.5 mph - N/A   Clear
4:53 AM 19.0 °F 7.5 °F 3.9 °F 52% 30.38 in 10.0 mi WNW 10.4 mph - N/A   Clear
5:53 AM 26.1 °F 15.6 °F 7.0 °F 44% 30.35 in 10.0 mi WNW 11.5 mph - N/A   Clear
6:53 AM 27.0 °F 16.1 °F 10.0 °F 49% 30.38 in 10.0 mi WNW 12.7 mph - N/A   Clear
7:53 AM 30.9 °F 21.2 °F 12.0 °F 46% 30.40 in 10.0 mi WNW 12.7 mph - N/A   Clear
8:53 AM 37.0 °F 29.8 °F 14.0 °F 39% 30.37 in 10.0 mi NNW 10.4 mph - N/A   Clear
9:53 AM 46.0 °F - 15.1 °F 29% 30.35 in 10.0 mi Calm Calm - N/A   Clear
10:53 AM 48.9 °F - 14.0 °F 25% 30.32 in 10.0 mi Variable 4.6 mph - N/A   Clear
11:53 AM 52.0 °F - 12.9 °F 21% 30.27 in 10.0 mi Calm Calm - N/A   Clear
12:53 PM 52.0 °F - 12.0 °F 20% 30.24 in 10.0 mi SSW 11.5 mph - N/A   Clear
1:53 PM 50.0 °F - 10.0 °F 20% 30.23 in 10.0 mi SSW 13.8 mph - N/A   Clear
2:53 PM 48.9 °F - 10.9 °F 22% 30.21 in 10.0 mi SSW 16.1 mph - N/A   Clear
3:53 PM 46.0 °F 42.5 °F 12.9 °F 26% 30.23 in 10.0 mi SSW 6.9 mph - N/A   Clear
4:53 PM 37.0 °F 32.4 °F 12.0 °F 36% 30.27 in 10.0 mi SW 5.8 mph - N/A   Clear
5:53 PM 33.1 °F 26.9 °F 12.0 °F 42% 30.25 in 10.0 mi South 6.9 mph - N/A   Clear
6:53 PM 30.9 °F - 12.9 °F 47% 30.27 in 10.0 mi Calm Calm - N/A   Clear
7:53 PM 32.0 °F 25.6 °F 14.0 °F 48% 30.24 in 10.0 mi WSW 6.9 mph - N/A   Clear
8:53 PM 33.1 °F 30.0 °F 15.1 °F 48% 30.23 in 10.0 mi East 3.5 mph - N/A   Clear
9:53 PM 28.9 °F 23.9 °F 14.0 °F 54% 30.20 in 10.0 mi WSW 4.6 mph - N/A   Clear
10:53 PM 32.0 °F 27.5 °F 17.1 °F 54% 30.18 in 10.0 mi WSW 4.6 mph - N/A   Clear
11:53 PM 30.9 °F - 16.0 °F 54% 30.16 in 10.0 mi Calm Calm - N/A   Clear